This demonstration page uses our WeatherBlox Daily Observations layout. Learn more.

Left ArrowRight Arrow

34.16533, -84.80231

Hourly Observations for February 3, 2022

Temp ( °F °C ) Dew Point ( °F °C ) Humidity (%) Winds ( mph kmh ) Pressure ( in mb ) Visibility ( mi km ) Precip ( " mm )
12:15 am 00:15 Cloudy with Light Rain 46 8 45 7 93 93 ESE 6 9 30.14 1020 7 11 0.00 0.00
12:35 am 00:35 Cloudy with Rain 46 8 45 7 93 93 ESE 8 13 30.13 1020 5 8 0.00 0.00
12:55 am 00:55 Cloudy with Light Rain 46 8 45 7 93 93 ESE 6 9 30.12 1020 3 5 0.06 1.52
3:55 am 03:55 Cloudy with Light Rain 46 8 45 7 93 93 Calm 30.09 1019 4 6 0.02 0.51
4:15 am 04:15 Cloudy with Light Rain 46 8 45 7 93 93 Calm 30.10 1019 5 8 0.00 0.00
4:35 am 04:35 Cloudy with Light Rain 46 8 46 8 100 100 E 5 7 30.09 1019 3 5 0.00 0.00
4:55 am 04:55 Cloudy with Light Rain 46 8 46 8 100 100 E 5 7 30.09 1019 3 4 0.04 1.02
5:15 am 05:15 Cloudy with Light Rain 46 8 46 8 100 100 VRB 7 11 30.08 1018 3 4 0.00 0.00
5:35 am 05:35 Cloudy with Light Rain 48 9 46 8 94 94 E 6 9 30.07 1018 4 6 0.00 0.00
5:55 am 05:55 Cloudy with Light Rain 48 9 46 8 94 94 E 6 9 30.07 1018 4 6 0.04 1.02
6:15 am 06:15 Cloudy with Rain 48 9 46 8 94 94 E 6 9 30.07 1018 3 5 0.00 0.00
6:35 am 06:35 Cloudy with Light Rain 48 9 48 9 100 100 E 7 11 30.07 1018 3 5 0.00 0.00
6:55 am 06:55 Cloudy with Light Rain 48 9 48 9 100 100 ESE 8 13 30.07 1018 4 6 0.05 1.27
7:15 am 07:15 Cloudy with Rain 48 9 48 9 100 100 E 9 15 30.07 1018 3 4 0.00 0.00
7:35 am 07:35 Cloudy with Light Rain 48 9 48 9 100 100 E 9 15 30.07 1018 3 5 0.00 0.00
7:55 am 07:55 Cloudy with Light Rain 50 10 48 9 94 94 ESE 9 15 30.07 1018 3 5 0.05 1.27
8:15 am 08:15 Cloudy with Light Rain 50 10 48 9 94 94 VRB 5 7 30.07 1018 3 4 0.00 0.00
8:35 am 08:35 Cloudy with Light Rain 50 10 50 10 100 100 E 8 13 30.07 1018 3 5 0.00 0.00
8:55 am 08:55 Cloudy with Light Rain 50 10 50 10 100 100 E 7 11 30.07 1018 3 4 0.08 2.03
9:15 am 09:15 Cloudy with Light Rain 50 10 50 10 100 100 E 5 7 30.07 1018 3 4 0.00 0.00
9:35 am 09:35 Cloudy with Light Rain 52 11 50 10 94 94 E 6 9 30.07 1018 3 5 0.00 0.00
9:55 am 09:55 Cloudy with Mist and Fog 52 11 52 11 100 100 E 7 11 30.06 1018 4 6 0.02 0.51
10:15 am 10:15 Mostly Cloudy with Light Rain 54 12 52 11 94 94 E 7 11 30.04 1017 3 5 0.00 0.00
10:35 am 10:35 Cloudy with Light Rain 54 12 52 11 94 94 E 7 11 30.04 1017 4 6 0.00 0.00
10:55 am 10:55 Mostly Cloudy with Light Rain 54 12 54 12 100 100 VRB 6 9 30.04 1017 3 5 0.05 1.27
11:15 am 11:15 Mostly Cloudy with Light Rain 54 12 54 12 100 100 VRB 6 9 30.04 1017 3 4 0.00 0.00
11:35 am 11:35 Cloudy with Light Rain 54 12 54 12 100 100 Calm 30.03 1017 3 4 0.00 0.00
11:55 am 11:55 Cloudy with Heavy Rain 55 13 54 12 94 94 W 6 9 30.04 1017 1 1 0.13 3.30
12:15 pm 12:15 Cloudy with Light Rain 55 13 55 13 100 100 Calm 30.03 1017 1 2 0.00 0.00
12:35 pm 12:35 Cloudy with Light Rain 55 13 55 13 100 100 Calm 30.02 1017 1 2 0.00 0.00
12:55 pm 12:55 Cloudy with Light Rain 55 13 55 13 100 100 E 5 7 30.01 1016 1 1 0.07 1.78
1:15 pm 13:15 Cloudy with Mist and Fog 55 13 55 13 100 100 E 5 7 30.00 1016 1 2 0.00 0.00
1:35 pm 13:35 Cloudy with Mist and Fog 57 14 57 14 100 100 E 6 9 29.98 1015 5 8 0.00 0.00
1:55 pm 13:55 Cloudy 59 15 59 15 100 100 E 7 11 29.97 1015 8 13 0.00 0.00
2:15 pm 14:15 Cloudy 59 15 59 15 100 100 E 6 9 29.96 1014 8 13 0.00 0.00
2:35 pm 14:35 Cloudy 61 16 59 15 94 94 ESE 7 11 29.94 1014 9 14 0.00 0.00
2:55 pm 14:55 Cloudy 61 16 59 15 94 94 VRB 5 7 29.94 1014 9 14 0.00 0.00
3:15 pm 15:15 Cloudy with Mist and Fog 61 16 59 15 94 94 VRB 6 9 29.93 1014 6 10 0.00 0.00
3:35 pm 15:35 Cloudy 63 17 61 16 94 94 VRB 7 11 29.92 1013 9 14 0.00 0.00
3:55 pm 15:55 Cloudy 63 17 61 16 94 94 SE 8 13 29.92 1013 10 16 0.00 0.00
4:35 pm 16:35 Cloudy 63 17 61 16 94 94 SE 8 13 29.92 1013 7 11 0.00 0.00
4:55 pm 16:55 Cloudy with Rain 63 17 61 16 94 94 SE 9 15 29.92 1013 3 5 0.03 0.76
5:15 pm 17:15 Cloudy with Light Rain 63 17 61 16 94 94 SSE 9 15 29.93 1014 5 8 0.00 0.00
5:35 pm 17:35 Cloudy with Light Rain 63 17 63 17 100 100 SE 8 13 29.93 1014 3 5 0.00 0.00
5:55 pm 17:55 Cloudy with Light Rain 63 17 63 17 100 100 SSE 7 11 29.93 1014 5 8 0.12 3.05
6:15 pm 18:15 Cloudy with Light Rain 64 18 63 17 94 94 SE 8 13 29.92 1013 7 11 0.00 0.00
6:35 pm 18:35 Cloudy with Rain 64 18 63 17 94 94 SSE 9 15 29.92 1013 3 4 0.00 0.00
6:55 pm 18:55 Cloudy with Rain 64 18 63 17 94 94 SSE 8 13 29.92 1013 4 6 0.15 3.81
7:15 pm 19:15 Cloudy with Heavy Rain 64 18 63 17 94 94 S 12 19 29.93 1013 2 3 0.00 0.00
7:35 pm 19:35 Cloudy with Rain 64 18 63 17 94 94 SSE 12 19 29.93 1013 3 5 0.00 0.00
7:55 pm 19:55 Cloudy with Heavy Rain 64 18 63 17 94 94 SSE 9 15 29.93 1013 3 5 0.38 9.65
8:15 pm 20:15 Cloudy with Heavy Rain 64 18 63 17 94 94 ESE 8 13 29.91 1013 2 3 0.00 0.00
8:35 pm 20:35 Mostly Cloudy with Light Rain 64 18 63 17 94 94 SE 10 17 29.90 1012 5 8 0.00 0.00
8:55 pm 20:55 Cloudy with Light Rain 64 18 63 17 94 94 S 8 13 29.90 1012 5 8 0.20 5.08
9:15 pm 21:15 Cloudy 64 18 61 16 88 88 S 8 13 29.90 1012 10 16 0.00 0.00
9:35 pm 21:35 Cloudy 63 17 61 16 94 94 S 8 13 29.92 1013 9 14 0.00 0.00
9:55 pm 21:55 Cloudy with Light Rain 63 17 61 16 94 94 S 8 13 29.93 1014 7 11 0.02 0.51
10:15 pm 22:15 Mostly Cloudy with Light Rain 63 17 61 16 94 94 S 7 11 29.95 1014 8 13 0.00 0.00
10:35 pm 22:35 Cloudy with Rain 63 17 63 17 100 100 S 9 15 29.94 1014 4 6 0.00 0.00
10:55 pm 22:55 Cloudy with Light Rain 64 18 63 17 94 94 S 9 15 29.92 1013 4 6 0.16 4.06
11:15 pm 23:15 Mostly Cloudy with Light Rain 64 18 63 17 94 94 SSW 9 15 29.93 1013 7 11 0.00 0.00
11:35 pm 23:35 Cloudy with Light Rain 64 18 63 17 94 94 S 12 19 29.94 1014 7 11 0.00 0.00
11:55 pm 23:55 Cloudy with Light Rain 64 18 63 17 94 94 S 8 13 29.94 1014 6 10 0.06 1.52

Powered by AerisWeather